Weather in Rassypnoye

Russia / Orenburg Oblast     51°36′03″N   53°37′35″E
temp.,
°C
wind,
m/s
gust,
m/s
humid.,
%
clouds,
%
prec.,
mm/h
press.,
hPa
HPBL,
m
28 september, tue
tue2823:00+6ene71180100 1.0 1009661
02:00+4ne4974100 0.1 1011667
05:00+3nne597499 0.1 1012431
08:00+4nne5878100 0.0 1014647
11:00+5ne6871100 0.0 10151001
14:00+6ne6762100 0.1 10171219
17:00+8ne5848100 0.1 10181717
20:00+8ne4852100 0.0 1019318
29 september, wed
wed2923:00+7nne4855100 0.0 1021347
02:00+4nne3665100 0.0 1022113
05:00+3nne3768100 0.0 1023172
08:00+3nne4870100 0.0 1024258
11:00+7nne564794 0.0 1025917
14:00+10nne553382 0.0 10241679
17:00+10nne55315 0.0 10241902
20:00+6nne34425 0.0 102548
30 september, thu
thu3023:00+6ne594745 0.0 1026268
02:00+4ene34679 0.0 102769
05:00+3ne33705 0.0 102839
08:00+2ne33695 0.0 103049
11:00+8ne33465 0.0 1030788
14:00+11ne223475 0.0 10301969
17:00+11nnw333198 0.0 10292059
20:00+7n35449 0.0 103062
1 october, fri
fri123:00+5n33461 0.0 103130
02:00+4nnw22500 0.0 103114
05:00+3nw22550 0.0 103110
08:00+3wnw22581 0.0 103224
11:00+9wnw344153 0.0 1032586
14:00+12nw443974 0.0 10311554
17:00+12nw344364 0.0 10301278
20:00+10n2356100 0.0 1031110
2 october, sat
sat223:00+10nw246259 0.0 1031134
02:00+7wnw337541 0.0 103147
05:00+8w347189 0.0 1031138
08:00+8w3572100 0.0 1032176
11:00+10wnw356898 0.0 1032301
14:00+15nw4450100 0.0 10321368
17:00+16wnw354891 0.0 10311598
20:00+13w2356100 0.0 103264